Location: Peebles
(55.6412°N, 3.1714°W)
Time: 10:16:17
(UTC+01:00)

TRANSIT 5B-2 DEB - Visible Passes

Search period start: 26 June 2022 00:00
Search period end: 06 July 2022 00:00
Orbit: 866 x 1009 km, 89.9° (Epoch: 25 June)

Date Brightness Start Highest point End Pass type
(mag) Time Alt. Az. Time Alt. Az. Time Alt. Az.
26 Jun ? 01:07:47 10° N 01:13:37 52° W 01:19:00 11° SSW visible
26 Jun ? 02:53:31 10° NNW 02:55:53 13° WNW 02:58:14 10° W visible
26 Jun ? 23:38:07 10° N 23:43:53 46° E 23:49:13 11° SSE visible
27 Jun ? 01:21:59 10° N 01:27:31 40° WNW 01:32:51 10° SW visible
27 Jun ? 23:52:06 10° N 23:58:01 59° E 00:03:18 12° SSE visible
28 Jun ? 01:36:12 10° NNW 01:41:21 31° WNW 01:46:21 10° SW visible
29 Jun ? 00:06:05 10° N 00:12:05 77° E 00:17:21 13° S visible
29 Jun ? 01:50:28 10° NNW 01:55:08 25° WNW 01:59:40 10° WSW visible
30 Jun ? 00:20:07 10° N 00:26:04 83° W 00:31:24 12° S visible
30 Jun ? 02:04:50 10° NNW 02:08:51 19° WNW 02:12:46 10° WSW visible
30 Jun ? 22:50:47 10° NNE 22:55:51 29° ENE 23:00:46 10° SE visible
01 Jul ? 00:34:10 10° N 00:40:01 64° W 00:45:26 11° SSW visible
01 Jul ? 02:19:22 10° NNW 02:22:30 15° WNW 02:25:36 10° W visible
01 Jul ? 23:04:34 10° NNE 23:10:01 37° ENE 23:15:16 10° SE visible
02 Jul ? 00:48:14 10° N 00:53:53 49° WNW 00:59:19 10° SSW visible
02 Jul ? 02:34:21 10° NW 02:36:06 11° NW 02:37:51 10° WNW visible
02 Jul ? 23:18:26 10° N 23:24:07 48° E 23:29:37 10° SSE visible
03 Jul ? 01:02:21 10° N 01:07:41 38° WNW 01:12:52 10° SW visible
03 Jul ? 23:32:19 10° N 23:38:09 63° E 23:43:37 11° SSE visible
04 Jul ? 01:16:30 10° NNW 01:21:25 29° WNW 01:26:14 10° SW visible
04 Jul ? 23:46:14 10° N 23:52:07 81° E 23:57:37 11° S visible
05 Jul ? 01:30:42 10° NNW 01:35:06 23° WNW 01:39:26 10° WSW visible
